sat.trackr.live / text

‹ back to catalog

FLOCK 4G-3

NORAD 62639 · 2025-009AG

PAYLOAD ACTIVE UNKNOWN

§ Identity

Operator
Country
US
Launch date
2025-01-14
Launch site
AFWTR
Launch vehicle
Mass (kg)
RCS (m²)

Purposes: earth_obs

External: N2YO · Heavens-Above · Gunter

§ Orbital elements

Epoch: 2026-09-19T22:40:35.448672Z

Period
94.05 min
Inclination
97.3968°
Eccentricity
0.0001719
Mean motion
15.31020107 rev/d
Perigee alt
471.6 km
Apogee alt
473.9 km
Semi-major
6,850.9 km
B*
1.5939e-4
RAAN
344.6083°
Arg perigee
356.8866°
Mean anomaly
3.2364°
Rev number
9,339

§ Raw data

FLOCK 4G-31 62639U 25009AG  26262.94485473  .00004699  00000+0  15939-3 0  99912 62639  97.3968 344.6083 0001719 356.8866   3.2364 15.31020107 93390

JSON: /api/v1/satellites/62639 · /tle

For live sub-satellite position, see the globe view (requires WebGL).

§ Visibility from observer

Set your observer location to see the next 7 days of passes ≥ 10°. The values pass through the URL so the page stays shareable.

No JS? Fill the form by hand. The geolocation button needs JavaScript.